Regional Weather Roundup
Issued by NWS

Home | Current Version | Previous Version | Graphics & Text | Print | Product List | Glossary On
Versions: 1 2 3 4 5 6 7 8 9 10 11 12 13 14 15 16 17 18 19 20 21 22 23 24 25 26 27 28 29 30 31 32 33 34 35 36 37 38 39 40 41 42 43 44 45 46 47 48 49 50
000
ASUS45 KSLC 010710
RWRUT

UTAH REGIONAL WEATHER ROUNDUP
NATIONAL WEATHER SERVICE SALT LAKE CITY UT
1200 AM MST SUN FEB 01 2015

UTZ001>011-023>025-010800-

NORTHERN UTAH

CITY           SKY/WX    TMP DP  RH WIND       PRES   REMARKS
BRIGHAM CITY   CLEAR     29  26  88 CALM      30.19R
HILL AFB       CLEAR     31  24  76 E5        30.17R WCI  26
LOGAN          CLEAR     26  24  92 CALM      30.18R
OGDEN          CLEAR     30  27  88 E3        30.17R
PROVO AIRPORT  CLEAR     28  25  86 SE5       30.17F WCI  23
SALT LAKE CITY CLEAR     31  28  89 E6        30.16F WCI  25
VERNAL         CLEAR     30  25  81 E8        30.04S WCI  22
WENDOVER       CLEAR     30  21  69 S3        30.17F
HEBER CITY     CLEAR     28  25  86 CALM      30.14S
WEST JORDAN    CLEAR     30  27  86 SW5       30.17F WCI  25

$$

UTZ012>022-026-027-010800-

SOUTHERN/CENTRAL UTAH

CITY           SKY/WX    TMP DP  RH WIND       PRES   REMARKS
BLANDING       CLEAR     31  31 100 CALM      30.11R
BRYCE CANYON   CLEAR     23  20  88 NW6       30.12R WCI  16
CEDAR CITY     CLEAR     29  25  85 CALM      30.13R
DELTA          CLEAR     32  32 100 S5        30.17S WCI  28
HANKSVILLE     CLEAR     34  34 100 CALM      30.09S
MILFORD        CLEAR     30  27  88 CALM      30.16R
MOAB/CYNLANDS  PTCLDY    36  35  96 NW3       30.05R
PRICE          CLEAR     33  21  61 NW8       30.07R WCI  26
ST GEORGE      SUNNY     45  34  65 SW5       30.10R
KANAB          CLEAR     32  30  93 E7        30.12R WCI  26

$$

REGIONAL REPORTS     COLORADO/ARIZONA

CITY           SKY/WX    TMP DP  RH WIND       PRES   REMARKS
CRAIG, CO      CLEAR     25  17  72 SW9       30.05R WCI  15
GRAND JUNCTION CLEAR     32  31  96 CALM      30.05R
RIFLE          CLEAR     29  26  89 SE7       30.04R WCI  22
MONTROSE       CLOUDY    33  32  96 S6        30.07S FOG     WCI  28
CORTEZ         CLEAR     34  29  82 N5        30.01R WCI  30
PAGE, AZ       NOT AVBL
GRAND CANYON   CLEAR     26  24  92 CALM      30.08S
KINGMAN        CLEAR     44  38  79 E6        30.04S
FLAGSTAFF      CLEAR     30  27  88 SW3       30.05R

$$

REGIONAL REPORTS    NEVADA/IDAHO/WYOMING

CITY           SKY/WX    TMP DP  RH WIND       PRES   REMARKS
LAS VEGAS, NV  CLEAR     52  40  63 S8        30.03R
ELY            CLEAR     24  18  77 S9        30.18S WCI  14
ELKO           CLEAR     27  23  85 SW3       30.21S
POCATELLO, ID  CLOUDY    32  31  96 W6        30.20R WCI  26
BURLEY         CLEAR     25  22  88 SE3       30.18R
EVANSTON, WY   CLEAR     24  18  77 SW9       30.12R WCI  14
ROCK SPRINGS   CLEAR     21  16  81 S3        30.07R

$$



USA.gov is the U.S. government's official web portal to all federal, state and local government web resources and services.